Skip Page Navigation
NASA JPL Caltech
NASA Logo - Jet Propulsion Laboratory + View the NASA Portal
+ Center for Near-Earth Object Studies
JPL Home Earth Solar System Stars & Galaxies Technology
JPL Solar System Dynamics
BODIES ORBITS EPHEMERIDES TOOLS PHYSICAL DATA DISCOVERY FAQ SITE MAP
IMPORTANT: The SSD Announcement email list is now available. Major changes are coming in the near future, including possible hostname and/or URL changes. To be notified of such changes, subscribe to this email list.

Please visit this page for more details.


JPL Small-Body Database Browser
Search: [ help ]  
35660 (1998 QS38)
Classification: Main-belt Asteroid          SPK-ID: 2035660
Ephemeris | Orbit Diagram | Orbital Elements | Mission Design | Physical Parameters | Discovery Circumstances | Close-Approach Data ]

[ show orbit diagram ]
Orbital Elements at Epoch 2458600.5 (2019-Apr-27.0) TDB
Reference: JPL 24 (heliocentric ecliptic J2000)
 Element Value Uncertainty (1-sigma)   Units 
e .2156500828803319 3.6652e-08  
a 3.167758146690895 2.6848e-08 au
q 2.484630839812157 1.2288e-07 au
i 13.43783663336143 6.7176e-06 deg
node 321.3845576614974 2.045e-05 deg
peri 289.9569436122272 2.6021e-05 deg
M 301.0132230829908 1.6702e-05 deg
tp 2458937.926057360345
(2020-Mar-29.42605736)
9.6933e-05 TDB
period 2059.332396150915
5.64
2.6181e-05
7.168e-08
d
yr
n .1748139351728132 2.2224e-09 deg/d
Q 3.850885453569633 3.2638e-08 au
  Orbit Determination Parameters
   # obs. used (total)      824  
   data-arc span      9771 days (26.75 yr)  
   first obs. used      1992-07-30  
   last obs. used      2019-05-01  
   planetary ephem.      DE431  
   SB-pert. ephem.      SB431-N16  
   condition code      0  
   norm. resid. RMS      .53987  
   source      ORB  
   producer      Otto Matic  
   solution date      2019-Jul-13 01:48:06  

Additional Information
 Earth MOID = 1.5091 au 
 Jupiter MOID = 1.57257 au 
 T_jup = 3.125 
[ show covariance matrix ]

Ephemeris | Orbit Diagram | Orbital Elements | Mission Design | Physical Parameters | Discovery Circumstances | Close-Approach Data ]

Physical Parameter Table
Parameter Symbol Value Units Sigma Reference Notes
absolute magnitude H 13.8   n/a MPO347781  
diameter diameter 10.218 km 0.143 urn:nasa:pds:neowise_diameters_albedos::2.0[mainbelt] (http://adsabs.harvard.edu/abs/2011ApJ...741...68M)  
geometric albedo albedo 0.061   0.011 urn:nasa:pds:neowise_diameters_albedos::2.0[mainbelt] (http://adsabs.harvard.edu/abs/2011ApJ...741...68M)  

35660 (1998 QS38)          Discovered 1998-Aug-17 by LINEAR at Socorro
Reference: 20020227/Numbers.arcLast Updated: 2004-04-19

[ show close-approach data ]
Alternate Designations
 1998 QS38 = 1999 XT128 
Ephemeris | Orbit Diagram | Orbital Elements | Mission Design | Physical Parameters | Discovery Circumstances | Close-Approach Data ]
ABOUT SSD CREDITS/AWARDS PRIVACY/COPYRIGHT GLOSSARY LINKS
FirstGov 2019-Oct-14 12:08 UT
(server date/time)  
NASA Home Page
Site Manager:   Ryan S. Park
Webmaster  Alan B. Chamberlin